sat.trackr.live / text

‹ back to catalog

STARLINK-1465

NORAD 45731 · 2020-038B

PAYLOAD ACTIVE UNKNOWN

§ Identity

Operator
Country
US
Launch date
2020-06-13
Launch site
AFETR
Launch vehicle
Mass (kg)
RCS (m²)

Purposes: comms

External: N2YO · Heavens-Above · Gunter

§ Orbital elements

Epoch: 2026-09-19T19:17:33.218016Z

Period
90.93 min
Inclination
53.0420°
Eccentricity
0.0003688
Mean motion
15.83703982 rev/d
Perigee alt
317.5 km
Apogee alt
322.4 km
Semi-major
6,698.1 km
B*
4.4580e-4
RAAN
347.7094°
Arg perigee
359.9734°
Mean anomaly
0.1287°
Rev number
34,681

§ Raw data

STARLINK-14651 45731U 20038B   26262.80385669  .00100932  00000+0  44580-3 0  99942 45731  53.0420 347.7094 0003688 359.9734   0.1287 15.83703982346811

JSON: /api/v1/satellites/45731 · /tle

For live sub-satellite position, see the globe view (requires WebGL).

§ Visibility from observer

Set your observer location to see the next 7 days of passes ≥ 10°. The values pass through the URL so the page stays shareable.

No JS? Fill the form by hand. The geolocation button needs JavaScript.